Regional Weather Roundup
Issued by NWS

Home | Current Version | Previous Version | Text Only | Print | Product List | Glossary On
Versions: 1 2 3 4 5 6 7 8 9 10 11 12 13 14 15 16 17 18 19 20 21 22 23 24 25 26 27 28 29 30 31 32 33 34 35 36 37 38 39 40 41 42 43 44 45 46 47 48 49 50
000
ASUS44 KFWD 221710
RWRTX
NORTH TEXAS HOURLY WEATHER ROUNDUP
NATIONAL WEATHER SERVICE FORT WORTH TX
1200 PM CDT TUE AUG 22 2017

NOTE: "FAIR" INDICATES FEW OR NO CLOUDS BELOW 12,000 FEET WITH NO
SIGNIFICANT WEATHER AND/OR OBSTRUCTIONS TO VISIBILITY.

TXZ118-119-221800-
DALLAS/FORT WORTH METROPLEX

CITY           SKY/WX    TMP DP  RH WIND       PRES   REMARKS
DFW AIRPORT    MOSUNNY   93  70  46 SW8       30.06S HX  99
DALLAS LOVE    MOSUNNY   92  69  47 CALM      30.07S HX  97
FTW MEACHAM    SUNNY     92  72  51 S9        30.07S HX  99
DAL-EXECUTIVE  SUNNY     91  71  51 W6        30.07S HX  97
FTW-ALLIANCE   MOSUNNY   92  72  51 SW7       30.07S HX  99
FTW-NAS-JRB    SUNNY     92  70  48 VRB6      30.07F HX  97
FTW-SPINKS     SUNNY     93  66  40 SW3       30.09F HX  96
ARLINGTON      SUNNY     91  71  51 S5        30.07S HX  97
GRAND PRAIRIE  SUNNY     91  66  43 SW6       30.08F HX  94
ADDISON        SUNNY     90  70  51 S5        30.08S HX  95
MESQUITE       SUNNY     90  70  51 S7        30.08S HX  95
LANCASTER      SUNNY     90  70  51 S6        30.08F HX  95
$$

TXZ091>094-102>105-117-120-121-131>134-221800-
NORTH CENTRAL TEXAS

CITY           SKY/WX    TMP DP  RH WIND       PRES   REMARKS
SHRMAN/DENISON SUNNY     89  74  60 SW7       30.08S HX  98
GAINESVILLE    SUNNY     89  71  55 W6        30.10S HX  94
BOWIE          SUNNY     89  71  55 SW3       30.09S HX  95
BRIDGEPORT     SUNNY     89  70  53 W3        30.10S HX  94
DECATUR        SUNNY     89  72  58 SW6         N/A  HX  96
DENTON         SUNNY     91  74  57 S10       30.07S HX 100
MCKINNEY       SUNNY     90  74  59 SW9       30.07S HX  99
BONHAM         SUNNY     90  73  58 W7        30.07F HX  98
GREENVILLE     SUNNY     91  72  52 SW5       30.09S HX  98
ROCKWALL       SUNNY     89  74  60 SW5       30.09S HX  97
TERRELL        SUNNY     90  71  53 W7        30.08F HX  96
WAXAHACHIE     SUNNY     91  70  50 W5        30.09F HX  96
CLEBURNE       SUNNY     90  70  51 W5G12     30.10S HX  95
GRANBURY       SUNNY     91  68  46 CALM      30.09F HX  95
$$

TXZ083>090-098>101-113>116-127>130-139>142-154-155-221800-
WESTERN NORTH TEXAS

CITY           SKY/WX    TMP DP  RH WIND       PRES   REMARKS
WICHITA FALLS  MOSUNNY   90  68  48 SW10      30.07R HX  94
WF-KICKAPOO    PTSUNNY   91  66  43 W10       30.10R HX  94
VERNON         CLOUDY    85  62  45 SW8       30.09S
ABILENE        SUNNY     87  69  54 SW8       30.13S HX  91
ABILENE-DYESS  MOSUNNY   91  68  47 S9        30.11R HX  94
GRAHAM         SUNNY     91  68  45 W8        30.08S HX  95
BRECKENRIDGE   SUNNY     93  64  38 CALM      30.10S HX  94
CISCO          SUNNY     88  68  51 S8        30.13S HX  91
EASTLAND       SUNNY     89  69  52 S7        30.11F HX  93
RANGER         SUNNY     88  69  54 SW5       30.12F HX  92
MINERAL WELLS  SUNNY     91  70  49 W9        30.07F HX  96
STEPHENVILLE   SUNNY     89  69  51 S6        30.14S HX  93
COMANCHE       SUNNY     91  67  45 CALM      30.12S HX  94
BROWNWOOD      SUNNY     90  66  45 S5        30.12S HX  92
COLEMAN        SUNNY     88  65  46 SW7       30.14R HX  90
$$

TXZ143>147-156>162-174-175-221800-
CENTRAL TEXAS

CITY           SKY/WX    TMP DP  RH WIND       PRES   REMARKS
WACO           SUNNY     91  68  46 W8        30.08S HX  95
WACO-TSTC      SUNNY     91  66  43 S3        30.08F HX  94
WACO-MCGREGOR  SUNNY     94  68  42 S8        30.08F HX  98
HILLSBORO      SUNNY     90  70  51 W5        30.09F HX  95
CORSICANA      SUNNY     92  70  48 VRB3      30.09S HX  97
MEXIA          SUNNY     90  70  50 NW5       30.08F HX  95
HEARNE         SUNNY     89  72  56 SE3       30.09F HX  96
CAMERON        SUNNY     90  71  53 SE5       30.09S HX  97
TEMPLE         SUNNY     93  70  46 S8        30.09S HX  99
KILLEEN        SUNNY     91  70  49 S3        30.09F HX  97
KILLEEN-SKYLRK SUNNY     90  70  51 VRB3      30.10S HX  95
FORT HOOD      SUNNY     88  68  50 CALM      30.07S HX  92
HAMILTON       SUNNY     92  64  39 SW7       30.12F HX  93
LAMPASAS       SUNNY     91  72  53 SW3       30.11S HX  98
$$

TXZ095>097-106>112-122>126-135>138-148>153-164>167-221800-
EAST TEXAS

CITY           SKY/WX    TMP DP  RH WIND       PRES   REMARKS
PARIS          SUNNY     91  76  61 W7        30.08F HX 103
SULPHUR SPRNGS SUNNY     90  73  58 W7        30.10S HX  98
MOUNT PLEASANT SUNNY     90  72  55 W6        30.09F HX  96
GILMER         SUNNY     87  72  60 CALM      30.08F HX  94
MINEOLA        SUNNY     90  73  58 S6        30.08F HX  98
TYLER          SUNNY     87  71  58 SW3       30.09S HX  93
LONGVIEW       MOSUNNY   88  76  67 W5        30.08S HX  99
MARSHALL         N/A     90  73  57 CALM      30.10F HX  97
ATHENS         SUNNY     86  70  58 CALM      30.07F HX  90
PALESTINE      SUNNY     90  71  53 W5        30.10S HX  95
JACKSONVILLE   SUNNY     88  71  58 S5        30.12F HX  94
HENDERSON      SUNNY     88  72  58 S6        30.10S HX  94
CENTER         PTSUNNY   91  76  60 MISG      30.10F HX 102
NACOGDOCHES    SUNNY     88  73  61 VRB6      30.10F HX  95
LUFKIN         SUNNY     88  72  58 VRB3      30.09F HX  94
$$

SUPPLEMENTAL OBSERVATIONS (NWS FORT WORTH AREA)

CITY           SKY/WX    TMP DP  RH WIND       PRES   REMARKS
CADDO GRASSLND   N/A     91  73  55 SW6         N/A  HX 100
PAT MAYSE LAKE   N/A     88  79  74 S5          N/A  HX 102
GREENVILLE       N/A     90  72  55 SW7         N/A  HX  96
CEDAR HILL       N/A     93  70  46 W3          N/A  HX  99
LBJ GRASSLAND    N/A     90  72  55 SW6         N/A  HX  96
MCGREGOR         N/A     93  64  38 S6          N/A  HX  95
$$

SUPPLEMENTAL OBSERVATIONS (NWS NORMAN AREA)

CITY           SKY/WX    TMP DP  RH WIND       PRES   REMARKS
GOODLETT         N/A     88  65  45 SW15      30.09S HX  90
ODELL            N/A     85  69  59 SW13      30.10F
CROWELL          N/A     82  72  72 SE2       30.11F
KNOX CITY        N/A     90  64  41 SW6       30.10F HX  91
SEYMOUR          N/A     87  67  50 SW5       30.10S HX  90
MILLERS CREEK    N/A     90  66  45 SW9         N/A  HX  92
$$

SUPPLEMENTAL OBSERVATIONS (NWS SAN ANGELO AREA)

CITY           SKY/WX    TMP DP  RH WIND       PRES   REMARKS
WEINERT          N/A     91  68  47 SW6       30.11S HX  95
HASKELL          N/A     87  65  48 SW9       30.11F
THROCKMORTON     N/A     89  70  52 SW7       30.11F HX  94
STAMFORD         N/A     91  68  46 S9        30.12S HX  94
CLYDE            N/A     89  67  48 SW6       30.15S HX  93
HAMBY            N/A     90  66  45 W7G15       N/A  HX  92
IVIE RESERVOIR   N/A     90  66  45 SE2         N/A  HX  92
COLORADO BEND    N/A     91  64  40 W6          N/A  HX  93
$$

SUPPLEMENTAL OBSERVATIONS (NWS SHREVEPORT AREA)

CITY           SKY/WX    TMP DP  RH WIND       PRES   REMARKS
CLARKSVILLE      N/A     93  73  52 W1          N/A  HX 102
TEXARKANA        N/A     90  75  62 W3          N/A  HX 100
LINDEN           N/A     91  73  55 SW3         N/A  HX 100
GILMER           N/A     91  73  55 SW3         N/A  HX 100
HENDERSON        N/A     90  73  58 W6          N/A  HX  98
LUFKIN           N/A     91  73  55 MISG        N/A  HX 100
N SABINE NF      N/A     91  75  59 MISG        N/A  HX 102
S SABINE NF      N/A     88  75  66 E7          N/A  HX  97
$$

SUPPLEMENTAL OBSERVATIONS ARE A COLLECTION OF AUTOMATED INSTRUMENTS
THAT ARE MAINTAINED BY A VARIETY OF FEDERAL AND STATE AGENCIES.
CERTAIN ELEMENTS...SUCH AS HUMIDITY VALUES AND SUSTAINED WIND
SPEEDS...MAY BE APPROXIMATED.





USA.gov is the U.S. government's official web portal to all federal, state and local government web resources and services.